一网星座-0281星 (ONEWEB-0281 )

导读

ONEWEB-0281是英国OneWeb公司低轨宽带卫星星座的组成卫星,由英国联合印度共同开发,于2021年7月1日搭乘联盟2-1b运载火箭发射入轨,属于该公司第8批次发射的36颗卫星之一。 卫星发射质量约147.5公斤,配备Ku/Ka波段天线,运行在高度约1200公里的近地轨道,设计寿命超7年,旨在为全球提供低时延宽带互联网接入服务,覆盖航空、海事等领域。

Basic Information
目录编号:
48999
目录名称:
ONEWEB-0281
国际标识:
2021-060AJ
轨道中心:
EARTH
卫星名称:
一网星座-0281星
卫星全名:
一网星座-0281星 (ONEWEB-0281 )
卫星状态:
在轨 (已飞行1807 天)
发射日期:
2021-07-01 UTC
国别 :
英国 (GB)
星等 :
--
Orbit Information
数据来源 国际轨道数据 AOE轨道数据
星历时间 2026-06-12T12:51:40+0800
17小时前
查看轨道信息
2026-06-13T00:00:00+0800
6小时前
查看轨道信息
半长轴 7575.891km 7575.887km
偏心率 0.0002114 0.0002095
轨道倾角 87.910° 87.911°
近地点辐角 98.922° 97.453°
升交点赤经 229.761° 229.669°
平近点角 261.215° 301.225°
近地点 1196.152km 1196.162km
远地点 1199.356km 1199.338km
周期 109.373分钟 109.373分钟
每日圈数 13.165952 13.165962
Detailed Information
平衡模式:
三轴稳定
覆盖范围:
全球
运营商:
一网卫星公司
运营商所在国:
英国
制造商(研发单位):
一网卫星公司
制造商所在国:
英国
使用方式:
暂无
Satellite Introduction
OneWeb卫星网络由648颗重约125公斤的微型卫星组成,运行在1200公里的轨道上。 每颗卫星都能够提供至少每秒8千兆位的吞吐量,以使用其高吞吐量的Ku频段有效载荷为家庭和移动平台提供互联网接入。该卫星仍在工作。
2D Orbit Map
3D Orbit Map
Orbit Altitude Analysis Chart
Orbit Inclination Analysis Chart
Orbit Comprehensive Analysis Chart
View Comprehensive Chart